Wind_Speed
4 6 4 6 9 10 13 15 17 15 15 20 20 22 15 12 9 9 12 11 15 13 13 14 22 32 24 23 26 27 29 30 31 32 34 34 36 36 37 36 39 40 37 35
6 1 5 7 8 10 14 16 14 15 19 20 24 24 14 10 7 9 2 2 4 10 14 13 20 22 21 24 24 26 30 36 38 34 33 32 32 34 36 36 39 40 35 37
5 6 9 7 7 12 14 7 16 20 22 10 16 14 11 7 6 10 1 4 8 16 15 15 20 24 28 28 29 32 35 36 38 36 28 34 36 32 34 37 36 35 31 35
2 9 7 8 7 13 12 16 21 20 18 17 16 10 6 7 7 4 2 4 13 14 18 21 23 27 29 32 35 34 34 34 35 38 39 32 38 40 35 35 34 28 25 29
4 9 9 9 9 14 15 20 23 23 19 15 4 7 10 6 7 5 3 10 17 21 22 23 23 25 30 30 32 30 29 31 32 32 36 39 34 38 36 36 37 32 34 40
6 13 6 11 12 14 18 23 20 4 4 4 7 3 16 10 4 5 8 9 16 24 26 25 21 24 25 27 32 32 36 34 34 34 34 38 41 36 41 42 44 46 48 49
10 6 9 10 12 11 15 18 8 5 2 4 13 13 19 22 14 9 12 18 22 25 18 18 25 24 24 32 27 31 38 43 43 41 39 40 41 42 41 45 49 50 53 51
6 8 2 12 13 11 13 9 4 4 4 12 25 8 10 6 17 19 19 24 18 12 12 25 24 23 25 25 30 32 35 36 39 41 44 48 45 47 48 48 52 55 48 51
8 1 10 17 14 9 8 6 7 8 15 4 8 14 22 9 7 10 19 18 14 23 24 24 26 23 24 28 33 38 45 34 35 38 41 43 46 50 54 55 58 52 49 50
5 10 6 7 14 11 9 10 5 4 3 5 11 21 18 14 19 27 24 19 22 24 30 27 28 28 26 36 39 53 45 45 40 39 41 43 45 50 53 57 57 53 54 56
9 6 9 15 1 11 8 12 10 12 13 5 6 9 24 35 21 14 25 32 33 29 30 31 26 27 36 41 52 51 50 43 42 40 42 44 44 43 47 52 54 56 54 52
9 8 12 19 8 7 7 9 13 14 13 23 26 31 11 13 9 39 36 31 36 33 30 22 25 33 44 56 54 50 50 49 49 47 46 46 42 39 41 46 51 50 45 43
11 4 10 9 2 3 17 25 26 28 28 19 11 21 27 42 39 36 38 38 35 26 26 29 32 42 47 52 49 47 46 48 50 50 49 46 41 38 38 42 42 43 43 39
13 9 8 15 21 28 31 31 34 34 35 34 32 48 41 40 41 37 34 32 31 25 27 38 44 48 52 51 51 51 50 49 50 48 47 44 39 38 38 39 42 38 35 36
13 19 17 25 26 26 31 32 34 37 39 36 45 39 41 39 38 35 32 35 31 32 39 55 46 44 52 50 53 50 48 46 45 44 41 37 40 37 38 43 32 33 35 39
18 28 30 37 37 26 29 35 45 39 30 28 31 38 35 36 36 34 23 31 42 51 59 54 44 53 51 50 51 48 46 42 38 39 40 37 32 34 36 29 33 35 40 43
26 31 31 28 30 31 32 23 22 22 28 29 32 40 41 34 26 29 37 50 59 50 48 54 54 53 48 51 52 48 45 42 37 37 35 34 33 35 31 33 33 38 42 46
27 30 32 27 30 7 14 20 31 26 22 27 38 34 28 25 33 45 56 42 48 52 48 52 47 54 54 51 49 45 34 35 34 31 35 37 31 31 31 34 37 41 44 44
9 20 23 16 24 35 27 23 17 30 31 30 20 17 26 45 56 48 38 52 47 51 51 49 51 50 54 53 46 36 32 28 28 30 27 27 30 30 33 38 40 42 43 43
16 18 20 27 25 15 21 33 19 23 31 21 22 50 31 52 52 58 45 50 55 49 48 50 54 54 54 48 37 31 24 20 18 23 24 27 30 34 37 40 40 40 41 41
20 23 29 34 26 26 32 28 21 17 21 48 48 40 57 48 44 50 54 53 52 52 52 52 52 52 49 38 29 20 17 15 19 23 28 31 33 35 37 38 38 39 40 40
23 22 25 24 18 20 13 22 30 50 47 49 59 51 51 46 36 50 50 52 48 52 56 53 51 50 37 27 21 19 17 21 23 27 32 34 35 35 35 36 36 37 37 37
22 21 29 31 31 48 49 49 50 48 50 49 46 45 42 51 50 48 50 49 53 56 50 48 47 39 27 22 23 23 21 24 28 31 32 33 33 32 34 35 35 36 36 36
25 33 38 41 49 46 47 41 41 45 46 45 30 42 50 41 43 45 53 52 55 53 51 45 37 26 23 24 23 23 25 27 30 31 32 32 31 32 32 33 34 35 35 35
39 44 46 51 47 39 41 45 45 42 45 41 41 47 45 39 47 51 53 53 52 48 42 35 25 20 21 24 24 27 29 31 31 31 31 30 31 32 33 32 33 34 33 34
42 44 40 46 38 42 50 40 38 42 36 45 35 37 40 46 51 52 52 51 49 41 34 23 18 23 25 23 26 29 29 30 31 30 30 30 32 33 32 32 31 32 32 28
Wind_Direction
332 13 23 359 356 349 330 319 321 334 328 314 308 302 302 293 278 263 255 249 251 265 261 255 270 281 302 297 292 292 293 298 300 302 301 296 294 293 294 297 296 297 295 291
313 267 309 337 342 333 333 319 326 321 315 310 307 294 286 244 272 291 237 296 289 301 306 273 267 290 299 300 296 297 301 307 307 309 306 299 300 303 304 303 297 295 293 288
340 280 307 331 333 329 335 323 324 317 324 344 343 325 201 239 255 315 343 344 337 322 324 304 303 301 303 302 299 303 308 312 313 314 309 308 303 300 300 296 294 296 291 284
254 284 319 325 315 325 326 313 313 316 326 323 325 291 289 168 231 183 256 283 324 320 321 318 316 315 313 313 309 310 313 316 316 314 310 306 303 305 303 295 289 290 279 275
305 293 309 332 296 325 307 325 323 302 298 306 319 299 50 230 226 224 287 286 306 311 309 307 305 309 308 307 308 312 315 315 317 312 308 307 304 298 294 289 281 258 253 261
284 316 301 302 317 320 327 327 324 295 277 283 351 280 299 337 239 233 256 269 283 300 311 305 305 316 305 303 302 312 324 323 320 315 307 304 302 295 289 286 281 272 263 262
318 252 303 329 341 329 329 349 339 355 262 255 6 314 269 290 283 271 264 273 308 315 316 295 298 305 293 318 307 312 312 314 316 312 309 306 300 293 285 283 283 276 274 273
335 308 303 302 320 322 331 352 329 309 322 312 314 271 321 312 295 292 291 297 318 313 291 301 308 304 301 298 304 311 311 301 299 296 296 296 297 288 289 287 280 277 276 274
338 291 332 310 320 331 324 333 295 289 273 265 260 296 302 321 301 310 316 307 275 302 318 310 303 304 302 301 306 310 310 311 308 302 294 286 282 283 284 288 284 279 272 271
325 304 307 298 318 302 294 305 331 236 284 298 303 304 274 311 308 297 317 311 313 320 305 309 302 290 286 294 302 314 315 310 310 303 297 292 287 284 286 285 278 276 272 275
306 286 285 312 258 327 306 305 271 275 286 279 293 263 291 296 310 327 320 308 302 319 317 311 309 301 299 302 307 315 316 313 314 309 298 300 293 287 285 280 277 284 280 281
332 312 296 310 307 278 313 308 305 283 279 278 290 283 316 332 320 309 320 311 306 303 306 299 299 307 305 305 318 316 317 314 314 309 305 301 297 294 292 284 286 295 292 290
319 289 320 353 182 287 317 306 302 301 298 262 258 274 294 302 310 312 309 305 301 303 301 296 300 308 301 307 313 316 318 311 309 308 305 303 298 291 293 299 296 294 290 289
304 298 285 279 289 303 307 303 299 300 295 292 278 289 301 307 307 309 310 301 303 301 302 309 309 304 308 317 317 317 316 312 308 305 302 302 298 292 299 297 296 291 296 305
304 293 295 288 291 297 298 297 295 291 293 292 294 295 301 309 311 306 299 296 299 303 299 313 311 314 319 316 317 318 313 311 304 298 295 293 294 298 298 300 296 302 308 309
290 282 291 289 299 303 299 290 295 291 293 288 293 294 305 309 308 301 307 302 301 305 313 313 308 320 320 318 317 320 312 305 288 289 290 294 279 275 295 293 303 311 313 315
278 282 285 285 297 298 300 314 306 296 300 293 295 297 304 310 301 302 300 308 307 311 313 318 320 321 321 322 320 315 310 301 292 300 286 276 268 295 298 307 308 312 314 313
272 278 281 284 296 256 291 282 300 300 290 286 299 303 298 300 290 301 308 311 310 314 317 322 318 321 325 320 318 311 307 298 303 296 279 288 297 304 306 305 309 311 312 312
291 269 275 279 279 287 294 311 306 305 295 298 296 286 291 305 307 308 310 317 310 318 322 322 322 324 321 323 318 313 308 301 286 284 291 297 307 304 305 308 312 312 311 311
287 279 281 287 288 295 291 293 318 291 283 281 295 305 311 313 309 312 318 319 318 325 322 324 323 323 325 320 318 311 308 312 300 291 308 305 307 306 308 310 312 312 312 315
291 294 291 286 274 288 303 314 290 277 288 316 315 308 308 308 312 311 317 320 321 320 323 324 324 325 323 321 317 305 312 311 290 304 303 305 306 309 311 311 313 315 317 317
288 294 282 280 272 282 304 308 310 307 302 303 305 308 312 321 319 317 318 317 317 322 324 325 325 323 321 316 299 299 288 299 303 297 303 308 311 314 313 313 316 317 318 319
267 277 278 271 275 290 292 296 292 292 297 300 310 312 314 308 311 318 321 321 322 322 324 322 320 318 316 297 296 301 307 308 307 307 310 314 316 315 314 316 319 321 321 321
268 294 283 293 297 302 303 303 310 309 298 306 306 307 308 316 319 320 320 323 320 321 320 319 318 314 299 295 303 311 313 310 311 314 315 317 318 317 318 321 323 323 323 320
280 289 291 294 306 310 304 309 307 304 307 297 296 303 313 318 319 321 321 320 321 321 321 320 315 303 301 309 317 316 314 316 317 319 319 319 320 322 323 324 326 326 326 322
286 290 290 297 304 297 305 314 310 303 298 301 303 311 314 316 321 322 321 320 320 320 323 321 305 309 316 321 314 313 317 318 320 321 321 320 320 323 324 325 325 327 326 321
Height
3158 3158 3158 3157 3156 3156 3155 3153 3150 3147 3146 3143 3139 3136 3135 3134 3132 3131 3130 3129 3128 3127 3127 3127 3123 3119 3117 3115 3113 3112 3109 3107 3105 3103 3100 3097 3093 3091 3089 3087 3081 3080 3078 3078
3158 3158 3156 3156 3157 3157 3154 3151 3148 3146 3143 3141 3135 3131 3131 3129 3127 3127 3127 3126 3125 3124 3123 3121 3119 3116 3114 3112 3109 3107 3105 3101 3097 3097 3092 3090 3088 3084 3080 3078 3074 3071 3072 3069
3157 3156 3155 3156 3157 3155 3153 3150 3147 3145 3140 3136 3134 3125 3127 3127 3125 3124 3123 3123 3122 3120 3119 3116 3114 3112 3109 3108 3106 3103 3099 3095 3089 3087 3088 3082 3080 3082 3079 3074 3069 3063 3062 3058
3156 3154 3155 3155 3156 3152 3151 3148 3145 3142 3141 3137 3135 3130 3127 3125 3124 3122 3123 3123 3121 3119 3116 3114 3111 3107 3104 3101 3098 3098 3095 3092 3087 3081 3078 3081 3074 3070 3070 3069 3064 3059 3055 3050
3157 3155 3154 3154 3153 3151 3149 3145 3141 3139 3138 3136 3132 3132 3126 3125 3124 3123 3123 3121 3119 3117 3114 3111 3108 3106 3102 3099 3094 3092 3091 3089 3086 3081 3075 3070 3071 3066 3065 3062 3058 3055 3051 3046
3156 3154 3153 3152 3151 3150 3147 3143 3137 3135 3135 3134 3131 3133 3125 3123 3124 3122 3122 3119 3115 3113 3110 3107 3106 3101 3098 3095 3089 3088 3085 3081 3078 3074 3070 3065 3060 3060 3054 3053 3050 3047 3043 3040
3156 3154 3152 3151 3151 3151 3147 3144 3139 3138 3134 3134 3132 3132 3126 3123 3121 3120 3117 3115 3112 3109 3105 3101 3099 3096 3092 3089 3086 3082 3076 3069 3065 3063 3060 3055 3050 3046 3047 3044 3038 3035 3030 3028
3155 3155 3153 3151 3151 3149 3148 3148 3148 3146 3140 3137 3132 3128 3123 3122 3119 3117 3115 3113 3109 3106 3103 3099 3096 3091 3087 3082 3079 3077 3072 3067 3063 3056 3050 3046 3042 3037 3034 3032 3028 3023 3023 3017
3156 3154 3153 3150 3149 3149 3147 3148 3147 3145 3141 3141 3133 3127 3123 3119 3119 3116 3115 3111 3108 3103 3099 3094 3090 3087 3081 3076 3071 3067 3063 3060 3055 3050 3045 3039 3034 3028 3023 3019 3014 3011 3009 3005
3158 3153 3151 3150 3148 3146 3147 3148 3146 3144 3142 3135 3128 3128 3121 3119 3115 3111 3111 3109 3104 3099 3093 3090 3084 3079 3074 3069 3065 3059 3055 3049 3046 3040 3034 3029 3025 3019 3014 3008 3003 2999 2996 2992
3156 3155 3151 3148 3147 3147 3147 3145 3145 3142 3141 3135 3128 3122 3119 3115 3111 3112 3108 3103 3097 3093 3088 3083 3078 3072 3065 3061 3057 3051 3043 3037 3033 3029 3022 3019 3014 3009 3005 2999 2993 2989 2985 2984
3154 3152 3148 3143 3142 3144 3143 3143 3142 3139 3136 3134 3127 3114 3116 3115 3111 3106 3103 3099 3093 3086 3081 3077 3071 3065 3058 3052 3047 3041 3033 3026 3020 3015 3009 3005 3001 2997 2993 2989 2983 2980 2978 2975
3153 3151 3147 3144 3144 3143 3142 3140 3138 3136 3131 3127 3125 3109 3110 3108 3105 3103 3096 3088 3083 3079 3073 3068 3063 3056 3049 3044 3038 3031 3024 3015 3008 3001 2995 2991 2989 2986 2982 2978 2975 2972 2969 2965
3152 3151 3152 3150 3145 3143 3138 3134 3129 3128 3123 3116 3115 3100 3105 3103 3099 3094 3089 3078 3075 3071 3067 3061 3055 3047 3040 3035 3027 3020 3014 3005 2996 2988 2983 2978 2977 2974 2972 2969 2967 2963 2960 2956
3149 3146 3147 3143 3140 3138 3134 3127 3121 3118 3115 3112 3100 3102 3097 3096 3092 3084 3078 3071 3065 3061 3056 3052 3046 3038 3032 3024 3017 3010 3003 2994 2986 2980 2975 2971 2967 2966 2964 2960 2957 2955 2952 2948
3147 3139 3138 3134 3133 3132 3126 3121 3113 3108 3107 3103 3098 3093 3095 3088 3082 3074 3069 3063 3058 3052 3047 3041 3034 3029 3021 3014 3006 2998 2991 2984 2977 2972 2968 2965 2962 2959 2956 2954 2950 2947 2943 2938
3143 3139 3133 3127 3128 3124 3118 3110 3108 3104 3104 3100 3092 3087 3083 3079 3073 3067 3063 3059 3048 3043 3037 3031 3023 3018 3010 3003 2994 2987 2980 2974 2969 2965 2961 2958 2955 2953 2951 2948 2943 2939 2935 2930
3135 3134 3131 3123 3123 3117 3110 3107 3103 3097 3095 3092 3086 3081 3077 3072 3065 3062 3057 3048 3042 3035 3027 3022 3015 3007 3001 2994 2985 2977 2971 2966 2963 2959 2956 2953 2949 2947 2943 2940 2936 2932 2927 2921
3131 3128 3126 3123 3116 3105 3103 3099 3098 3093 3086 3086 3080 3074 3069 3064 3056 3051 3048 3041 3033 3027 3020 3013 3005 2997 2989 2980 2972 2966 2962 2959 2956 2953 2950 2947 2944 2941 2937 2933 2928 2924 2917 2912
3129 3127 3126 3122 3113 3099 3095 3094 3090 3086 3076 3076 3073 3068 3059 3052 3045 3038 3035 3030 3023 3016 3009 3002 2995 2987 2978 2970 2963 2959 2955 2951 2949 2948 2947 2943 2939 2935 2930 2925 2920 2915 2909 2902
3123 3121 3119 3113 3107 3092 3088 3088 3084 3081 3075 3071 3064 3058 3052 3046 3042 3035 3028 3020 3014 3008 3000 2993 2984 2977 2969 2961 2956 2953 2951 2948 2945 2944 2941 2938 2933 2928 2923 2917 2912 2906 2900 2893
3120 3118 3112 3104 3101 3088 3087 3085 3084 3078 3068 3062 3055 3050 3043 3038 3030 3025 3020 3012 3006 2998 2991 2982 2974 2968 2960 2955 2952 2950 2946 2943 2941 2939 2935 2931 2926 2921 2915 2910 2905 2899 2892 2885
3110 3111 3104 3101 3092 3083 3082 3080 3073 3068 3060 3052 3047 3041 3035 3030 3024 3017 3011 3005 2998 2989 2981 2973 2967 2960 2955 2951 2948 2946 2943 2939 2936 2932 2928 2923 2919 2914 2909 2903 2897 2891 2885 2878
3096 3099 3092 3087 3079 3075 3071 3067 3065 3058 3050 3044 3038 3031 3026 3021 3015 3010 3003 2995 2987 2980 2973 2966 2959 2954 2951 2946 2944 2941 2937 2934 2930 2926 2921 2917 2912 2908 2903 2896 2890 2884 2878 2872
3091 3087 3079 3069 3065 3061 3058 3058 3055 3047 3041 3033 3029 3023 3017 3013 3008 3001 2994 2986 2978 2971 2964 2957 2953 2949 2945 2942 2939 2936 2932 2928 2923 2919 2915 2910 2906 2901 2896 2891 2884 2879 2873 2866
3079 3073 3071 3058 3057 3056 3047 3046 3043 3037 3028 3025 3020 3013 3010 3005 2998 2990 2984 2976 2969 2962 2956 2951 2948 2945 2941 2938 2934 2931 2927 2922 2918 2914 2909 2905 2900 2895 2890 2885 2880 2875 2869 2863